Regional Weather Roundup
Issued by NWS Upton, NY

Current Version | Previous Version | Text Only | Print | Product List | Glossary On
Versions: 1 2 3 4 5 6 7 8 9 10 11 12 13 14 15 16 17 18 19 20 21 22 23 24 25 26 27 28 29 30 31 32 33 34 35 36 37 38 39 40 41 42 43 44 45 46 47 48 49 50
000 ASUS41 KOKX 191605 RWROKX REGIONAL WEATHER ROUNDUP NATIONAL WEATHER SERVICE NEW YORK NY 1200 PM EDT SUN OCT 19 2014 NOTE: "FAIR" INDICATES FEW OR NO CLOUDS BELOW 12,000 FEET WITH NO SIGNIFICANT WEATHER AND/OR OBSTRUCTIONS TO VISIBILITY. NYZ071-072-176-178-NJZ106-104-191700- NEW YORK CITY METRO AREA CITY SKY/WX TMP DP RH WIND PRES REMARKS CENTRAL PARK MOSUNNY 53 32 44 VRB3G28 29.92S LAGUARDIA APRT PTSUNNY 53 36 52 NW17G25 29.89R KENNEDY INTL PTSUNNY 54 35 48 NW20G31 29.90R NEWARK/LIBERTY MOSUNNY 55 33 43 NW16 29.91S BRNX BOT. GARD N/A 54 32 43 NW9 29.91R TETERBORO PTSUNNY 53 32 44 NW17G25 29.90S $$ NYZ177-179-078>081-191700- LONG ISLAND NEW YORK CITY SKY/WX TMP DP RH WIND PRES REMARKS FARMINGDALE CLOUDY 55 35 47 N15G22 29.87S ISLIP PTSUNNY 56 37 49 N15 29.83F SHIRLEY NOT AVBL WESTHAMPTON CLOUDY 54 37 52 NW18G29 29.84F MONTAUK POINT N/A 54 39 57 NW15G24 29.81F $$ NYZ052-065-067-191700- HUDSON VALLEY CITY SKY/WX TMP DP RH WIND PRES REMARKS WHITE PLAINS PTSUNNY 53 33 46 NW17G24 29.87R NEWBURGH PTSUNNY 52 36 54 NW12G23 29.91S MONTGOMERY MOSUNNY 52 32 46 W17G26 29.92R POUGHKEEPSIE MOSUNNY 54 29 38 NW12G23 29.90S ALBANY PTSUNNY 46 30 53 NW22G28 29.93S $$ NJZ001-105-106-008-010-013-015-019>022-104-191700- NEW JERSEY CITY SKY/WX TMP DP RH WIND PRES REMARKS NEWARK/LIBERTY MOSUNNY 55 33 43 NW16 29.91S TETERBORO PTSUNNY 53 32 44 NW17G25 29.90S CALDWELL PTSUNNY 50 30 46 N13G25 29.93R MORRISTOWN PTSUNNY 54 32 43 N15 29.94R SOMERVILLE MOSUNNY 52 32 46 NW18G25 29.93R SUSSEX PTSUNNY 50 29 44 NW12G20 29.95R ANDOVER N/A 48 28 46 NW14G26 29.95R TRENTON PTSUNNY 50 30 46 NW16G30 29.95R MILLVILLE PTSUNNY 54 34 46 NW21G29 29.97R ATLANTIC CITY MOSUNNY 56 37 49 NW22G31 29.93S WRIGHTSTOWN PTSUNNY 52 34 50 W18 29.92R TOMS RIVER MOSUNNY 54 34 47 NW10G17 29.92S BELMAR PTSUNNY 54 34 47 NW22G28 29.91R $$ PAZ047>061-062-071-191700- EASTERN PENNSYLVANIA CITY SKY/WX TMP DP RH WIND PRES REMARKS PHILADELPHIA MOSUNNY 53 33 46 NW22G30 29.98R ALLENTOWN SUNNY 49 27 42 NW17G28 30.00R SCRANTON CLOUDY 43 30 60 NW12 30.02R $$ CTZ002-004>006-009-010-012-RIZ004-006-007-MAZ004-011-015-191700- SOUTHERN NEW ENGLAND IN CT CITY SKY/WX TMP DP RH WIND PRES REMARKS BRADLEY INTL PTSUNNY 52 31 44 NW24 29.85R HARTFORD PTSUNNY 52 32 46 N13G20 29.86R DANBURY PTSUNNY 52 33 48 NW8G23 29.88R WTRBRY/OXFORD PTSUNNY 48 30 49 N14G25 29.86R BRIDGEPORT PTSUNNY 53 33 46 NW13G25 29.86S MERIDEN PTSUNNY 52 32 46 N17G28 29.86R NEW HAVEN PTSUNNY 55 33 43 NW13G23 29.85S CHESTER PTSUNNY 52 36 54 N15G23 29.83F GROTON PTSUNNY 55 38 52 NW16G25 29.79F WILLIMANTIC CLOUDY 51 37 58 NW10G21 29.83R IN RI CITY SKY/WX TMP DP RH WIND PRES REMARKS PROVIDENCE PTSUNNY 54 35 48 NW17G25 29.78F BLOCK ISLAND CLOUDY 54 37 54 NW14G20 29.78F WESTERLY MOSUNNY 55 37 50 NW14G28 29.80F IN MA CITY SKY/WX TMP DP RH WIND PRES REMARKS BOSTON PTSUNNY 53 34 48 NW16G23 29.79R WORCESTER PTSUNNY 48 32 53 NW15G23 29.80R WESTFIELD CLOUDY 50 31 48 NW16G26 29.85R PROVINCETOWN CLOUDY 54 39 58 NW15G24 29.76F NANTUCKET CLOUDY 55 42 61 N18G25 29.73F $$ ANZ330-335-338-340-345-350-353-355-191700- COASTAL MARINE OBSERVATIONS STATION/POSITION TIME SKY/WX TEMP WIND PRES VSBY WAVE AIR SEA DIR/SP/G HT/PER (UTC) (F) (DEG/KT/KT) (MB) (MI) (FT/S) NY HARB ENTRANCE NOT AVBL 4S FIRE IS 1600 64 N/A 4/11 20S FIRE ISLAND 1600 54 64 330/ 19/ 21 1010.7 6/ 6 23SW MTP 1600 N/A 5/ 4 HUDSON CANYON 1600 56 66 330/ 23/ 29 1009.4 7/ 6 EXECUTION ROCKS 1600 54 64 310/ 17/ 27 N/A WESTERN LI SOUND 1600 53 310/ 16/ 19 N/A 1/ 3 CENTRAL LI SOUND 1600 52 65 320/ 19/ 25 N/A 3/ 4 EASTERN LI SOUND 1500 54 64 330/ 14/ 21 N/A ROBBINS REEF 1600 51 310/ 15/ 18 1011.3 $$ >>>>>>>>>>>>>>>>>>>>>>>>>>>> KEY <<<<<<<<<<<<<<<<<<<<<<<<<<< > < > SKY/WX - SKY CONDITION/PRESENT WEATHER < > TMP - TEMPERATURE IN FAHRENHEIT < > DP - DEWPOINT IN FAHRENHEIT < > RH - RELATIVE HUMIDITY IN PERCENT < > WIND - DIRECTION AND SPEED IN MPH < > PRES - MEAN SEA LEVEL PRESSURE IN INCHES OF HG < > WCI - WIND CHILL INDEX < > VSB - VISIBILITY IN MILES < > HX - HEAT INDEX < > TC - TEMPERATURE IN CELSIUS < > VRB - VARIABLE WIND DIRECTION < > < >>>>>>>>>>>>>>>>>>>>>>>>>>>> KEY <<<<<<<<<<<<<<<<<<<<<<<<<<<

USA.gov is the U.S. government's official web portal to all federal, state and local government web resources and services.